Weather History for Harrisburg, PA

Change the Weather History Date:

Thursday, June 6, 2013

  Actual Average Record
Temperature  
Mean Temperature 63 °F -  
Max Temperature 68 °F 74 °F 99 °F (1925)
Min Temperature 60 °F 56 °F 43 °F (1945)
Degree Days  
Heating Degree Days 2    
Growing Degree Days 13 (Base 50)    
Moisture  
Dew Point 58 °F    
Average Humidity 82    
Maximum Humidity 100    
Minimum Humidity 59    
Precipitation  
Precipitation 0.36 in - - ()
Sea Level Pressure  
Sea Level Pressure 29.98 in    
Wind  
Wind Speed 8 mph (ESE)    
Max Wind Speed 14 mph    
Max Gust Speed 17 mph    
Visibility 8 miles    
Events Rain    
Averages and records for this station are not official NWS values.
T = Trace of Precipitation, MM = Missing Value Source: NWS Daily Summary

Daily Weather History Graph

Daily Weather History Graph

Search for Another Location

Airport:

Trip Planner

Search our weather history database for the weather conditions in past years. The results will help you decide how hot, cold, wet, or windy it might be!

Date:

Astronomy

Jun. 06, 2013 Rise Set
Actual Time 5:38 AM EDT 8:34 PM EDT
Civil Twilight 5:05 AM EDT 9:07 PM EDT
Nautical Twilight 4:24 AM EDT 9:48 PM EDT
Astronomical Twilight 3:36 AM EDT 10:36 PM EDT
Moon 4:18 AM EDT (6/6) 6:54 PM EDT (6/6)
Length of Visible Light 16h 01m
Length of Day
14h 56m
Waning Crescent, 4% of the Moon is Illuminated
Jun 6
Waning Crescent
Jun 8
New
Jun 16
First Quarter
Jun 23
Full
Jun 30
Last Quarter

Hourly Weather History & Observations

Time (EDT) Temp. Dew Point Humidity Pressure Visibility Wind Dir Wind Speed Gust Speed Precip Events Conditions
12:56 AM 66.9 °F 52.0 °F 59% 30.08 in 10.0 mi SE 4.6 mph - N/A   Overcast
1:56 AM 66.9 °F 53.1 °F 61% 30.08 in 10.0 mi SE 9.2 mph - N/A   Overcast
2:56 AM 66.9 °F 52.0 °F 59% 30.06 in 10.0 mi SSE 12.7 mph - N/A   Overcast
3:56 AM 66.9 °F 52.0 °F 59% 30.07 in 10.0 mi ESE 5.8 mph - N/A   Overcast
4:56 AM 64.9 °F 53.1 °F 65% 30.06 in 10.0 mi ENE 4.6 mph - N/A   Overcast
5:56 AM 64.0 °F 54.0 °F 70% 30.06 in 10.0 mi East 6.9 mph - N/A   Overcast
6:56 AM 64.0 °F 55.0 °F 73% 30.07 in 10.0 mi East 5.8 mph - N/A   Overcast
7:56 AM 64.0 °F 55.9 °F 75% 30.06 in 10.0 mi East 5.8 mph - N/A   Partly Cloudy
8:56 AM 64.9 °F 55.9 °F 73% 30.06 in 10.0 mi ESE 9.2 mph - N/A   Overcast
9:56 AM 66.0 °F 55.0 °F 68% 30.04 in 10.0 mi ESE 6.9 mph - 0.00 in Rain Light Rain
10:56 AM 66.0 °F 54.0 °F 65% 30.04 in 10.0 mi ESE 8.1 mph - 0.00 in Rain Light Rain
11:56 AM 66.0 °F 54.0 °F 65% 30.04 in 10.0 mi SE 9.2 mph - 0.00 in Rain Light Rain
12:56 PM 66.0 °F 55.0 °F 68% 30.01 in 10.0 mi ESE 9.2 mph - 0.00 in Rain Light Rain
1:56 PM 66.9 °F 55.9 °F 68% 29.99 in 10.0 mi ESE 10.4 mph - 0.00 in Rain Light Rain
2:56 PM 66.9 °F 57.9 °F 73% 29.98 in 9.0 mi SE 8.1 mph - 0.01 in Rain Light Rain
3:56 PM 64.9 °F 60.1 °F 84% 29.98 in 5.0 mi ESE 9.2 mph - 0.04 in Rain Rain
4:56 PM 63.0 °F 60.1 °F 90% 29.98 in 6.0 mi ENE 4.6 mph - 0.06 in Rain Rain
5:56 PM 62.1 °F 59.0 °F 90% 29.98 in 3.0 mi ENE 6.9 mph - 0.14 in Rain Rain
6:08 PM 62.6 °F 59.0 °F 88% 29.97 in 3.0 mi East 8.1 mph - 0.04 in Rain Heavy Rain
6:15 PM 60.8 °F 59.0 °F 94% 29.97 in 3.0 mi East 8.1 mph - 0.06 in Rain Rain
6:28 PM 60.8 °F 59.0 °F 94% 29.96 in 4.0 mi East 9.2 mph - 0.08 in Rain Rain
6:35 PM 60.8 °F 59.0 °F 94% 29.96 in 5.0 mi East 6.9 mph - 0.10 in Rain Rain
6:56 PM 61.0 °F 59.0 °F 93% 29.96 in 7.0 mi East 8.1 mph - 0.11 in Rain Light Rain
7:13 PM 60.8 °F 59.0 °F 94% 29.95 in 10.0 mi East 6.9 mph - 0.00 in Rain Light Rain
7:56 PM 61.0 °F 60.1 °F 97% 29.94 in 6.0 mi East 6.9 mph - 0.00 in Rain Light Rain
8:00 PM 60.8 °F 60.8 °F 100% 29.94 in 6.0 mi East 4.6 mph - 0.00 in Rain Light Rain
8:10 PM 62.6 °F 60.8 °F 94% 29.95 in 7.0 mi East 4.6 mph - 0.00 in Rain Light Rain
8:56 PM 63.0 °F 61.0 °F 93% 29.93 in 9.0 mi East 8.1 mph - 0.00 in   Overcast
9:12 PM 64.4 °F 62.6 °F 94% 29.91 in 10.0 mi ESE 10.4 mph - N/A   Overcast
9:32 PM 64.4 °F 62.6 °F 94% 29.91 in 10.0 mi ESE 11.5 mph 17.3 mph N/A   Overcast
9:56 PM 64.0 °F 63.0 °F 96% 29.92 in 10.0 mi ESE 12.7 mph - N/A   Overcast
10:27 PM 64.4 °F 62.6 °F 94% 29.92 in 10.0 mi SE 9.2 mph - 0.00 in   Overcast
10:53 PM 64.4 °F 62.6 °F 94% 29.91 in 8.0 mi ESE 10.4 mph - 0.00 in   Overcast
10:56 PM 64.9 °F 63.0 °F 93% 29.91 in 9.0 mi ESE 9.2 mph - 0.00 in   Overcast
11:31 PM 64.4 °F 62.6 °F 94% 29.90 in 10.0 mi SE 10.4 mph - N/A   Overcast
11:56 PM 64.9 °F 61.0 °F 87% 29.89 in 10.0 mi SE 13.8 mph - N/A   Overcast